STARLINK-33734 (63367 NORAD) Tracking and Keplerian Element Data

This shows tracking and keplerian element data for the satellite.

Feedback or suggestion? Click here.




ElementValue
Catalog63367
NameSTARLINK-33734
Epoch Orbit4240
Epoch Day354.23362338
Epoch Year2025
RAAN71.5049
Inclination53.1592
Eccentricity0.0001744
Argument of Perigee94.6353
Mean Anonmoly265.4848
Mean Motion15.30207112
Decay Rate0.00018791
L11 63367U 25063E 25354.23362338 .00018791 00000+0 64480-3 0 9990
L22 63367 53.1592 71.5049 0001744 94.6353 265.4848 15.30207112 42403



Live tracking and technical data element details for STARLINK-33734 (NORAD 63367). STARLINK-33734 can be tracked NOW for your location showing map with azimuth and elevation plus other details from your city location.







IsCatalogInMostPopularTable: catalog: 63367, numindb: 3
Update: records affected: 1



GetName: 63367 STARLINK-33734

Hit Count: updated at: Sat, 07 Feb 2026 08:58:07 GMT